General Mariano Matamoros Airport

Jump to: basic info | weather | frequencies | runways | comments

Related pages: nearby airports | nearby navaids | notams | map

Basic information (top)

Codes: CVJ MMCB
Location: lon 18.834801, lat -99.261299, elev 4,277 ft / 1,304 m msl
Status: medium_airport
Scheduled airline service: yes
Links: Wikipedia Mobile

Weather (top)

Current conditions (rec'd 2014/11/27 23:45Z):

MMCB 272345Z 00000KT 10SM SCT080 22/00 A3016 RMK 8/070

Airport forecast (rec'd 2014/10/31 06:18Z):

TAF MMCB 310515Z 3106/0106 00000KT 6SM HZ SCT030 SCT100 
     FM311800 22007KT P6SM SCT030 BKN100 
     FM010500 00000KT 6SM HZ SCT030

Frequencies (top)

Verify before use: may be inaccurate or out of date.

APP: 128.9 MHz (TOLUCA APP)
TWR: 118.35 MHz (CUERNAVACA TWR)

Runways (top)

02/20: 9,439 x 148 ft (2,877 x 45 m) — paved — lighted — threshold 20 displaced 260 ft (79 m)

Latest comments (top)

No comments yet for General Mariano Matamoros Airport

More... (top)

See also NOTAMs and nearby airports and navaids, or visit the General Mariano Matamoros Airport page at the main OurAirports website..